Other Surface Observations
Issued by NWS Tucson, AZ

Home | Current Version | Previous Version | Text Only | Print | Product List | Glossary On
Versions: 1 2 3 4 5 6 7 8 9 10 11 12 13 14 15 16 17 18 19 20 21 22 23 24 25 26 27 28 29 30 31 32 33 34 35 36 37 38 39 40 41 42 43 44 45 46 47 48 49 50
267
SXUS55 KTWC 100615
OSOTWC

WEATHER ROUNDUP FOR SOUTHEAST ARIZONA
NATIONAL WEATHER SERVICE TUCSON AZ
1115 PM MST TUE FEB 09 2016

AZZ504>506-514-100715-
LOCATION       SKY/WX    TMP DP  RH WIND       PRES   REMARKS
TUCSON         CLEAR     62  18  18 E8        30.21S
DAVIS-MONTHAN  CLEAR     56  21  25 E7        30.19S
CHILDRENS PARK N/A      N/A N/A  38 E3                PIMA CO DEQ
ALVERNON/22ND  N/A       58 N/A N/A NW1               PIMA CO DEQ
CHERRY/GLENN   N/A       61 N/A N/A N/A               PIMA CO DEQ
TANGERINE      N/A       65 N/A N/A NE7               PIMA CO DEQ
CONTL RANCH    N/A       64  26  24 S7                PIMA CO DEQ
GRANT/1ST      N/A       63  27  25 SW3               PIMA CO DEQ
CRAYCROFT/22ND N/A       63  19  18 N/A               PIMA CO DEQ
GOLFLINKS/KOLB N/A       65  18  16 E5                PIMA CO DEQ
AJO/12TH       N/A       60  23  24 S6                PIMA CO DEQ
SAGUARO EAST   N/A       18 -19  16 NE2               PIMA CO DEQ
FAIRGROUNDS    N/A       56 N/A N/A E9                PIMA CO DEQ
SAGUARO        N/A       66  17  15 N6G10             *SABINO CYN
SAN CARLOS     N/A       51  24  34 W4                *SAN CARLOS
GREEN VALLEY   N/A       59  18  20 NW5               PIMA CO DEQ
HORSE CAMP CYN N/A       55  18  23 E12               *ARAVAIPA CYN
RINCON MTNS    N/A       48   3  15 NE14G24           *NR MANNING CAMP
$$

AZZ509>511-100715-
LOCATION       SKY/WX    TMP DP  RH WIND       PRES   REMARKS
SAFFORD        CLEAR     50  23  34 SE9       30.26R
STRAY HORSE    N/A       40  13  33 N4                *
TRAIL CABIN    N/A       43  20  40 SE5               *N OF GRANVILLE
BLACK HILLS    N/A       48  24  38 CALM              *N OF FT THOMAS
DRY LAKE       N/A       44  15  30 S5                *NATANES MTNS
NOON CREEK     N/A       48  19  31 SW8G11            *PINALENO MTNS
COLUMBINE      N/A       32  16  51 CALM              *PINALENO MTNS
GUTHRIE        N/A       50  15  24 SE6G11            *SW OF GUTHRIE
$$

AZZ502-503-513-100715-
LOCATION       SKY/WX    TMP DP  RH WIND       PRES   REMARKS
NOGALES        CLEAR     54  16  22 E6        30.24R
SELLS          N/A       63  24  22 NE3               *
SASABE         N/A       47  21  35 NW2               *ALTAR VLY
HOPKINS        N/A       53   4  13 E11G18            *SANTA RITA MTNS
CARR CYN       N/A       51  19  28 S2                *W OF HEREFORD
$$

AZZ507-508-512-100715-
LOCATION       SKY/WX    TMP DP  RH WIND       PRES   REMARKS
SIERRA VISTA   CLEAR     43  21  41 S3        30.30S
DOUGLAS        CLEAR     45  16  31 N8        30.30R
EMPIRE MTNS    N/A       39  17  41 W5                *LAS CIENEGAS NCA
MULESHOE RANCH N/A       59  16  18 E6G12             *PRESERVE
HEADQUARTERS   N/A       38  23  55 E4                *CHIRICAHUA MTNS
$$

.............................NOTES.............................
THIS IS AN AUTOMATED COLLECTIVE WITH MINIMAL QUALITY CONTROL.
PIMA CO DEQ SITES HAVE NONSTANDARD WIND SENSOR HEIGHTS.
PIMA CO DEQ SITES DO NOT REPORT WIND GUSTS.
* INDICATES WIND SENSORS LOCATED AT 20 FEET INSTEAD OF 33 FEET.
..............................KEY..............................
SKY/WX - SKY CONDITION/WEATHER
TMP    - TEMPERATURE IN FAHRENHEIT
DP     - DEWPOINT IN FAHRENHEIT
RH     - RELATIVE HUMIDITY IN PERCENT
WIND   - DIRECTION AND SPEED IN MILES PER HOUR (MPH)
VRB    - VARIABLE WIND DIRECTION
PRES   - MEAN SEA LEVEL PRESSURE IN INCHES OF MERCURY
         F - FALLING PRESSURE   R - RISING PRESSURE
         S - STEADY PRESSURE
VSB    - VISIBILITY IN MILES
HX     - HEAT INDEX IN FAHRENHEIT
WCI    - WIND CHILL INDEX IN FAHRENHEIT
N/A    - NOT AVAILABLE
AFB    - AIR FORCE BASE
         DAVIS-MONTHAN IS DAVIS-MONTHAN AIR FORCE BASE
CYN    - CANYON
MTNS   - MOUNTAINS
NCA    - NATIONAL CONSERVATION AREA
NR     - NEAR
VLY    - VALLEY
CONTL  - CONTINENTAL
PIMA CO DEQ - PIMA COUNTY DEPT OF ENVIRONMENTAL QUALITY



USA.gov is the U.S. government's official web portal to all federal, state and local government web resources and services.